Find Starlink 32939

NORAD ID: 63149 Int'l Des: 2025-043 Owner: SPXS Country: US Constellation: starlink operational
LEOCIRCULAR

Live-Position

3D-Globus wird geladen...

Über Starlink 32939

Beschreibung wird geladen...

Nächste Überflüge

Passes for default location (London). Set your location on the main map for personalized predictions.

Höhenverlauf

Loading altitude history...

Zweizeiliger Elementsatz

1 63149U 25043T 26125.83094760 .00026556 00000-0 97057-3 0 9995
2 63149 43.0008 53.3353 0000542 313.5072 46.5735 15.27596741 66104
Epoch: 5. Mai 2026 • Age: 26 hours

Aktueller Status

Höhe 495.8 km
Geschwindigkeit 7.62 km/s
Subsatellitenpunkt -42.78°S, 110.06°E
Startdatum 3. März 2025
Alter 1.1 years
Typ internet

Technische Details

Klassifizierung Payload
Masse 730.00 kg
Trockenmasse 700.00 kg
Gesamtmasse 730.00 kg
Länge 0.30 m
Durchmesser 4.10 m
Spannweite 29.00 m
Form Box + pan
Hersteller SPXS
Bus-Typ Starlink V2M
Phasenstatus In Orbit
Besitzer/Staat SPXS/US

Most Searched